FW2738 Weather Reports


time (UTC)temp
C
wind
direction
speed
KPH
gust
KPH
rain 1hr
cm
rain 24hr
cm
rain mn
cm
humidity
%
barometer
mb
20260506011557 20 347 17.7 24.1 0.00 0.00 0.00 76 1004.2
20260506010055 21 341 14.5 22.5 0.00 0.00 0.00 76 1004.3
20260506004555 21 332 12.9 24.1 0.00 0.00 0.00 75 1004.3
20260506003053 22 325 16.1 20.9 0.00 0.00 0.00 73 1004.1
20260506001556 23 305 17.7 25.7 0.00 0.00 0.00 70 1003.6
20260506000053 24 331 16.1 24.1 0.00 0.00 0.00 70 1003.8
20260505234554 25 309 16.1 24.1 0.00 0.00 0.00 65 1003.2
20260505233050 26 317 22.5 29.0 0.00 0.00 0.00 60 1003.4
20260505231600 27 311 11.3 20.9 0.00 0.00 0.00 56 1002.8
20260505230057 27 317 12.9 25.7 0.00 0.00 0.00 54 1002.4
20260505224552 29 290 14.5 22.5 0.00 0.00 0.00 59 1002.5
20260505223048 30 194 9.7 16.1 0.00 0.00 0.00 59 1001.9
20260505221548 30 180 9.7 16.1 0.00 0.00 0.00 55 1001.7
20260505220047 30 264 9.7 22.5 0.00 0.00 0.00 55 1001.7
20260505214545 30 176 9.7 22.5 0.00 0.00 0.00 59 1002.1
20260505213052 30 225 17.7 27.4 0.00 0.00 0.00 60 1002.1
20260505211544 30 172 8.0 25.7 0.00 0.00 0.00 63 1002.2
20260505210039 29 188 16.1 22.5 0.00 0.00 0.00 65 1002.3
20260505204539 29 164 12.9 27.4 0.00 0.00 0.00 66 1002.3
20260505203036 28 202 17.7 27.4 0.00 0.00 0.00 68 1002.7
20260505201538 28 199 16.1 32.2 0.00 0.00 0.00 68 1002.8
20260505200036 28 161 16.1 38.6 0.00 0.00 0.00 67 1002.8
20260505194534 28 199 17.7 35.4 0.00 0.00 0.00 68 1003.0
20260505193033 28 165 22.5 33.8 0.00 0.00 0.00 66 1002.9
20260505191533 28 186 16.1 33.8 0.00 0.00 0.00 69 1002.6
20260505190029 27 202 20.9 33.8 0.00 0.00 0.00 68 1002.8
20260505184528 27 171 19.3 33.8 0.00 0.00 0.00 68 1002.9
20260505183034 27 209 22.5 38.6 0.00 0.00 0.00 68 1003.0
20260505181526 27 194 22.5 41.8 0.00 0.00 0.00 69 1003.2
20260505180042 27 217 19.3 40.2 0.00 0.00 0.00 69 1002.8
20260505174522 26 217 20.9 43.5 0.00 0.00 0.00 72 1002.9
20260505173019 26 171 25.7 40.2 0.00 0.00 0.00 74 1002.8
20260505171515 25 167 19.3 35.4 0.00 0.00 0.00 77 1003.4
20260505170015 24 168 17.7 33.8 0.00 0.00 0.00 78 1002.8
20260505164514 24 200 20.9 38.6 0.00 0.00 0.00 78 1002.7
20260505163013 24 190 30.6 46.7 0.00 0.00 0.00 77 1003.6
20260505161513 25 200 27.4 43.5 0.00 0.00 0.00 77 1002.9
20260505153010 23 189 22.5 43.5 0.00 0.00 0.00 80 1003.0
20260505151503 23 172 27.4 40.2 0.00 0.00 0.00 80 1003.0
20260505124551 21 173 17.7 40.2 0.00 0.00 0.00 85 1002.6
20260505123053 21 192 22.5 35.4 0.00 0.00 0.00 86 1002.5
20260505121549 21 173 22.5 33.8 0.00 0.00 0.00 85 1002.5
20260505120051 21 175 20.9 35.4 0.00 0.00 0.00 85 1002.4
20260505114550 21 180 22.5 37.0 0.00 0.00 0.00 85 1002.3
20260505113051 21 180 22.5 32.2 0.00 0.00 0.00 85 1002.3
20260505111545 21 198 20.9 35.4 0.00 0.00 0.00 84 1002.2
20260505101559 21 157 20.9 38.6 0.00 0.00 0.00 85 1002.2
20260505100057 21 198 20.9 35.4 0.00 0.00 0.00 85 1002.3
20260505094539 21 210 25.7 37.0 0.00 0.00 0.00 85 1002.3
20260505093038 21 198 25.7 40.2 0.00 0.00 0.00 85 1002.6
20260505091536 21 185 24.1 43.5 0.00 0.00 0.00 85 1002.6
20260505090035 20 174 20.9 38.6 0.00 0.00 0.00 85 1002.6
20260505084535 20 171 20.9 41.8 0.00 0.00 0.00 85 1002.7
20260505083032 21 159 25.7 37.0 0.00 0.00 0.00 84 1002.6
20260505081530 21 197 24.1 40.2 0.00 0.00 0.00 83 1002.8
20260505080032 21 184 25.7 46.7 0.00 0.00 0.00 83 1003.0
20260505074525 21 211 24.1 48.3 0.00 0.00 0.00 82 1003.2
20260505073033 21 166 25.7 43.5 0.00 0.00 0.00 81 1003.3
20260505071520 21 201 20.9 45.1 0.00 0.00 0.00 81 1003.5
20260505070018 21 220 25.7 46.7 0.00 0.00 0.00 80 1003.8
20260505064519 21 179 16.1 40.2 0.00 0.00 0.00 79 1003.7
20260505063015 21 185 24.1 43.5 0.00 0.00 0.00 79 1004.0
20260505061521 21 174 22.5 38.6 0.00 0.00 0.00 78 1003.9
20260505060011 21 159 24.1 35.4 0.00 0.00 0.00 77 1004.0
20260505054510 21 162 22.5 43.5 0.00 0.00 0.00 77 1004.2
20260505053019 21 184 20.9 33.8 0.00 0.00 0.00 76 1004.3
20260505051517 21 148 22.5 35.4 0.00 0.00 0.00 75 1004.4
20260505041508 21 171 24.1 37.0 0.00 0.00 0.00 74 1004.6
20260505040004 21 182 24.1 32.2 0.00 0.00 0.00 73 1004.6
20260505034503 22 158 19.3 32.2 0.00 0.00 0.00 72 1004.8
20260505033005 22 161 20.9 41.8 0.00 0.00 0.00 72 1005.0
20260505031501 22 186 17.7 37.0 0.00 0.00 0.00 72 1005.0
20260505030002 22 167 14.5 29.0 0.00 0.00 0.00 71 1005.1
20260505024501 22 170 14.5 30.6 0.00 0.00 0.00 70 1004.9
20260505023105 22 153 17.7 30.6 0.00 0.00 0.00 69 1004.9
20260505021600 22 165 17.7 29.0 0.00 0.00 0.00 68 1004.7
20260505020059 23 158 16.1 29.0 0.00 0.00 0.00 67 1004.8
20260505014606 23 177 19.3 33.8 0.00 0.00 0.00 67 1004.5
20260505013059 23 175 24.1 41.8 0.00 0.00 0.00 66 1004.3